When you browse on this site, cookies collect data to enhance your experience and personalize the content and advertising you see.
Visit our Privacy Policy to learn more. By continuing to use the site, you agree to this use of cookies and data.
  • In Denmark
  • List of Countries
  • For 7 days
  • Water Temperature
  • Satellite Maps
  • Weather Map
  • Weather Widgets
  • user-avatar
    Login

    Hourly Weather Dardamty

    Today, 18 December, Tuesday

    Time Temperature Precipitation Wind Pressure Humidity
    00:00 -2°C° 0 mm 2 mps 662 mmHg 56%
    01:00 -2°C° 0 mm 2 mps 661 mmHg 56%
    02:00 -2°C° 0 mm 2 mps 661 mmHg 56%
    03:00 -2°C° 0 mm 2 mps 661 mmHg 55%
    04:00 -2°C° 0 mm 2 mps 660 mmHg 55%
    05:00 -3°C° 0 mm 2 mps 659 mmHg 52%
    06:00 -2°C° 0 mm 2 mps 659 mmHg 51%
    07:00 -2°C° 0 mm 2 mps 659 mmHg 50%
    08:00 0°C° 0 mm 1 mps 659 mmHg 49%
    09:00 -1°C° 0 mm 2 mps 659 mmHg 49%
    10:00 +1°C° 0 mm 2 mps 659 mmHg 49%
    11:00 +2°C° 0 mm 2 mps 659 mmHg 48%
    12:00 +1°C° 0 mm 3 mps 659 mmHg 51%
    13:00 -1°C° 0 mm 4 mps 659 mmHg 54%
    14:00 -1°C° 0 mm 5 mps 660 mmHg 57%
    15:00 -2°C° 0.1 mm 5 mps 660 mmHg 62%
    16:00 -4°C° 0.1 mm 5 mps 661 mmHg 68%
    17:00 -5°C° 0 mm 6 mps 662 mmHg 77%
    18:00 -5°C° 0 mm 5 mps 662 mmHg 76%
    19:00 -4°C° 0 mm 4 mps 663 mmHg 75%
    20:00 -5°C° 0 mm 3 mps 663 mmHg 75%
    21:00 -4°C° 0 mm 2 mps 663 mmHg 75%
    22:00 -4°C° 0 mm 2 mps 663 mmHg 75%
    23:00 -3°C° 0 mm 1 mps 663 mmHg 76%

    Tomorrow, 19 December, Wednesday

    Time Temperature Precipitation Wind Pressure Humidity
    00:00 -3°C° 0 mm 1 mps 662 mmHg 75%
    01:00 -5°C° 0 mm 2 mps 662 mmHg 74%
    02:00 -5°C° 0 mm 2 mps 662 mmHg 73%
    03:00 -5°C° 0 mm 2 mps 662 mmHg 73%
    04:00 -5°C° 0 mm 2 mps 662 mmHg 73%
    05:00 -4°C° 0 mm 1 mps 662 mmHg 72%
    06:00 -4°C° 0 mm 1 mps 662 mmHg 71%
    07:00 -3°C° 0 mm 1 mps 662 mmHg 69%
    08:00 -3°C° 0 mm 1 mps 662 mmHg 68%
    09:00 -2°C° 0 mm 1 mps 662 mmHg 66%
    10:00 -2°C° 0 mm 1 mps 662 mmHg 63%
    11:00 -1°C° 0 mm 1 mps 662 mmHg 61%
    12:00 -1°C° 0 mm 1 mps 662 mmHg 61%
    13:00 0°C° 0 mm 1 mps 662 mmHg 61%
    14:00 0°C° 0 mm 1 mps 662 mmHg 61%
    15:00 -1°C° 0 mm 1 mps 662 mmHg 64%
    16:00 -2°C° 0 mm 1 mps 663 mmHg 67%
    17:00 -3°C° 0 mm 1 mps 663 mmHg 70%
    18:00 -3°C° 0 mm 1 mps 663 mmHg 69%
    19:00 -3°C° 0 mm 1 mps 663 mmHg 68%
    20:00 -3°C° 0 mm 1 mps 664 mmHg 67%
    21:00 -3°C° 0 mm 1 mps 664 mmHg 67%
    22:00 -3°C° 0 mm 1 mps 664 mmHg 66%
    23:00 -3°C° 0 mm 1 mps 664 mmHg 66%

    Day after tomorrow, 20 December, Thursday

    Time Temperature Precipitation Wind Pressure Humidity
    00:00 -3°C° 0 mm 1 mps 664 mmHg 66%
    01:00 -3°C° 0 mm 1 mps 664 mmHg 66%
    02:00 -3°C° 0 mm 1 mps 665 mmHg 66%
    03:00 -3°C° 0 mm 1 mps 665 mmHg 67%
    04:00 -3°C° 0 mm 1 mps 665 mmHg 68%
    05:00 -3°C° 0 mm 1 mps 665 mmHg 69%
    06:00 -3°C° 0 mm 1 mps 666 mmHg 69%
    07:00 -3°C° 0 mm 1 mps 666 mmHg 70%
    08:00 -3°C° 0 mm 1 mps 666 mmHg 71%
    09:00 -3°C° 0.1 mm 1 mps 667 mmHg 72%
    10:00 -2°C° 0.1 mm 1 mps 667 mmHg 73%
    11:00 -2°C° 0.1 mm 1 mps 667 mmHg 74%
    12:00 -2°C° 0.1 mm 1 mps 667 mmHg 75%
    13:00 -2°C° 0.1 mm 1 mps 667 mmHg 76%
    14:00 -2°C° 0.1 mm 1 mps 666 mmHg 78%
    15:00 -2°C° 0.1 mm 1 mps 667 mmHg 80%
    16:00 -3°C° 0.1 mm 1 mps 667 mmHg 82%
    17:00 -3°C° 0.1 mm 1 mps 667 mmHg 84%
    18:00 -3°C° 0.1 mm 1 mps 667 mmHg 83%
    19:00 -3°C° 0.1 mm 1 mps 668 mmHg 83%
    20:00 -3°C° 0.1 mm 1 mps 668 mmHg 82%
    21:00 -3°C° 0 mm 1 mps 668 mmHg 82%
    22:00 -6°C° 0 mm 2 mps 668 mmHg 82%
    23:00 -6°C° 0 mm 2 mps 668 mmHg 82%

    21 December, Friday

    Time Temperature Precipitation Wind Pressure Humidity
    00:00 -6°C° 0 mm 2 mps 668 mmHg 81%
    01:00 -6°C° 0 mm 2 mps 668 mmHg 80%
    02:00 -6°C° 0 mm 2 mps 668 mmHg 79%
    03:00 -7°C° 0 mm 2 mps 668 mmHg 78%
    04:00 -7°C° 0 mm 2 mps 668 mmHg 78%
    05:00 -6°C° 0 mm 1 mps 668 mmHg 77%
    06:00 -6°C° 0 mm 1 mps 668 mmHg 77%
    07:00 -6°C° 0 mm 1 mps 669 mmHg 76%
    08:00 -6°C° 0 mm 1 mps 669 mmHg 76%
    09:00 -4°C° 0 mm 1 mps 669 mmHg 74%
    10:00 -6°C° 0 mm 2 mps 668 mmHg 73%
    11:00 -5°C° 0 mm 2 mps 668 mmHg 71%
    12:00 -5°C° 0 mm 2 mps 668 mmHg 70%
    13:00 -5°C° 0 mm 2 mps 667 mmHg 69%
    14:00 -6°C° 0 mm 3 mps 667 mmHg 68%
    15:00 -6°C° 0 mm 3 mps 667 mmHg 68%
    16:00 -7°C° 0 mm 3 mps 667 mmHg 68%
    17:00 -8°C° 0 mm 3 mps 667 mmHg 68%
    18:00 -8°C° 0 mm 3 mps 667 mmHg 65%
    19:00 -8°C° 0 mm 3 mps 667 mmHg 62%
    20:00 -8°C° 0 mm 3 mps 667 mmHg 59%
    21:00 -8°C° 0 mm 3 mps 666 mmHg 57%
    22:00 -8°C° 0 mm 3 mps 666 mmHg 55%
    23:00 -8°C° 0 mm 3 mps 666 mmHg 53%

    22 December, Saturday

    Time Temperature Precipitation Wind Pressure Humidity
    00:00 -8°C° 0 mm 3 mps 665 mmHg 52%
    01:00 -8°C° 0 mm 3 mps 665 mmHg 50%
    02:00 -8°C° 0 mm 3 mps 664 mmHg 48%
    03:00 -8°C° 0 mm 3 mps 664 mmHg 46%
    04:00 -8°C° 0 mm 3 mps 663 mmHg 44%
    05:00 -8°C° 0 mm 3 mps 663 mmHg 42%
    06:00 -7°C° 0 mm 2 mps 663 mmHg 41%
    07:00 -7°C° 0 mm 2 mps 663 mmHg 40%
    08:00 -6°C° 0 mm 2 mps 663 mmHg 38%
    09:00 -5°C° 0 mm 2 mps 663 mmHg 39%
    10:00 -4°C° 0 mm 2 mps 663 mmHg 39%
    11:00 -2°C° 0 mm 2 mps 662 mmHg 39%
    12:00 -2°C° 0 mm 2 mps 662 mmHg 40%
    13:00 -2°C° 0 mm 2 mps 662 mmHg 42%
    14:00 -2°C° 0 mm 2 mps 661 mmHg 43%
    15:00 -3°C° 0 mm 2 mps 661 mmHg 43%
    16:00 -4°C° 0 mm 2 mps 661 mmHg 43%
    17:00 -5°C° 0 mm 2 mps 661 mmHg 43%
    18:00 -3°C° 0 mm 1 mps 661 mmHg 43%
    19:00 -3°C° 0 mm 1 mps 661 mmHg 43%
    20:00 -3°C° 0 mm 1 mps 661 mmHg 43%
    21:00 -3°C° 0 mm 1 mps 661 mmHg 44%
    22:00 -3°C° 0 mm 1 mps 661 mmHg 45%
    23:00 -3°C° 0 mm 1 mps 661 mmHg 45%

    23 December, Sunday

    Time Temperature Precipitation Wind Pressure Humidity
    00:00 -3°C° 0 mm 1 mps 660 mmHg 46%
    01:00 -3°C° 0 mm 1 mps 660 mmHg 48%
    02:00 -3°C° 0 mm 1 mps 660 mmHg 49%
    03:00 -3°C° 0 mm 1 mps 660 mmHg 50%
    04:00 -3°C° 0 mm 1 mps 660 mmHg 51%
    05:00 -3°C° 0 mm 1 mps 659 mmHg 52%
    06:00 -3°C° 0 mm 1 mps 659 mmHg 52%
    07:00 -3°C° 0 mm 1 mps 659 mmHg 52%
    08:00 -3°C° 0 mm 1 mps 660 mmHg 52%
    09:00 -2°C° 0 mm 1 mps 660 mmHg 51%
    10:00 0°C° 0 mm 1 mps 660 mmHg 50%
    11:00 -1°C° 0 mm 2 mps 660 mmHg 48%
    12:00 -1°C° 0 mm 2 mps 660 mmHg 49%
    13:00 +1°C° 0 mm 1 mps 659 mmHg 50%
    14:00 +1°C° 0 mm 1 mps 659 mmHg 51%
    15:00 0°C° 0 mm 1 mps 659 mmHg 53%
    16:00 -1°C° 0 mm 1 mps 660 mmHg 56%
    17:00 -3°C° 0 mm 0 mps 660 mmHg 58%
    18:00 -2°C° 0 mm 1 mps 660 mmHg 59%
    19:00 -2°C° 0 mm 1 mps 660 mmHg 61%
    20:00 -2°C° 0 mm 1 mps 660 mmHg 62%
    21:00 -2°C° 0.1 mm 1 mps 661 mmHg 65%
    22:00 -2°C° 0.1 mm 1 mps 661 mmHg 69%
    23:00 -3°C° 0.1 mm 1 mps 661 mmHg 72%
    Show more